Weather History for KWJF - May, 2013

Change the Weather History Date:

Friday, May 17, 2013

  Actual Average Record
Temperature  
Mean Temperature 68 °F 69 °F  
Max Temperature 79 °F 83 °F 102 °F (1954)
Min Temperature 56 °F 55 °F 37 °F (1978)
Degree Days  
Heating Degree Days 0    
Month to date heating degree days 29  
Since 1 July heating degree days 2714  
Cooling Degree Days 3    
Month to date cooling degree days 93  
Year to date cooling degree days 183  
Growing Degree Days 18 (Base 50)    
Moisture  
Dew Point 39 °F    
Average Humidity 42    
Maximum Humidity 62    
Minimum Humidity 21    
Precipitation  
Precipitation 0.00 in 0.00 in 0.07 in (1949)
Month to date precipitation 0.15 0.06  
Year to date precipitation 1.10 4.83  
Since 1 July precipitation 1.26  
Snow  
Snow 0.00 in - 0.00 in ()
Month to date snowfall 0.0  
Since 1 July snowfall 0.0  
Snow Depth 0.00 in    
Sea Level Pressure  
Sea Level Pressure 29.90 in    
Wind  
Wind Speed 24 mph (West)    
Max Wind Speed 36 mph    
Max Gust Speed 43 mph    
Visibility 10 miles    
Events      
T = Trace of Precipitation, MM = Missing Value Source: NWS Daily Summary

Daily Weather History Graph

Daily Weather History Graph

Search for Another Location

Airport or City:

Trip Planner

Search our weather history database for the weather conditions in past years. The results will help you decide how hot, cold, wet, or windy it might be!

Date:

Astronomy

May. 17, 2013 Rise Set
Actual Time 5:48 AM PDT 7:50 PM PDT
Civil Twilight 5:20 AM PDT 8:19 PM PDT
Nautical Twilight 4:45 AM PDT 8:53 PM PDT
Astronomical Twilight 4:09 AM PDT 9:30 PM PDT
Moon 12:18 PM PDT (5/17) 12:52 AM PDT (5/17)
Length of Visible Light 14h 58m
Length of Day
14h 02m
Waxing Crescent, 46% of the Moon is Illuminated
May 17
Waxing Crescent
May 17
First Quarter
May 24
Full
May 31
Last Quarter
Jun 8
New

Hourly Weather History & Observations

Time (PDT) Temp. Dew Point Humidity Pressure Visibility Wind Dir Wind Speed Gust Speed Precip Events Conditions
12:56 AM 60.1 °F 41.0 °F 49% 29.87 in 10.0 mi West 19.6 mph 28.8 mph N/A   Clear
1:56 AM 60.1 °F 42.1 °F 51% 29.86 in 10.0 mi West 21.9 mph - N/A   Clear
2:56 AM 59.0 °F 43.0 °F 55% 29.87 in 10.0 mi West 19.6 mph - N/A   Clear
3:56 AM 57.9 °F 43.0 °F 58% 29.86 in 10.0 mi West 18.4 mph 24.2 mph N/A   Clear
4:56 AM 57.9 °F 43.0 °F 58% 29.86 in 10.0 mi West 27.6 mph 33.4 mph N/A   Clear
5:56 AM 57.0 °F 43.0 °F 59% 29.89 in 10.0 mi West 23.0 mph - N/A   Clear
6:56 AM 57.0 °F 44.1 °F 62% 29.92 in 10.0 mi West 21.9 mph - N/A   Clear
7:56 AM 60.1 °F 43.0 °F 53% 29.92 in 10.0 mi West 23.0 mph 31.1 mph N/A   Clear
8:56 AM 63.0 °F 42.1 °F 46% 29.92 in 10.0 mi West 26.5 mph 33.4 mph N/A   Clear
9:56 AM 66.0 °F 41.0 °F 40% 29.92 in 10.0 mi West 25.3 mph 33.4 mph N/A   Clear
10:56 AM 70.0 °F 39.9 °F 33% 29.91 in 10.0 mi West 25.3 mph 33.4 mph N/A   Clear
11:56 AM 73.9 °F 39.0 °F 28% 29.91 in 10.0 mi West 18.4 mph 27.6 mph N/A   Clear
12:56 PM 75.9 °F 37.0 °F 24% 29.88 in 10.0 mi West 21.9 mph - N/A   Clear
1:56 PM 78.1 °F 35.1 °F 21% 29.88 in 10.0 mi West 29.9 mph 39.1 mph N/A   Clear
2:56 PM 77.0 °F 36.0 °F 23% 29.88 in 10.0 mi West 29.9 mph 38.0 mph N/A   Clear
3:56 PM 75.9 °F 37.0 °F 24% 29.88 in 10.0 mi West 31.1 mph 41.4 mph N/A   Clear
4:56 PM 73.9 °F 37.0 °F 26% 29.88 in 10.0 mi WSW 31.1 mph 40.3 mph N/A   Clear
5:56 PM 72.0 °F 36.0 °F 27% 29.89 in 10.0 mi West 28.8 mph 38.0 mph N/A   Clear
6:56 PM 70.0 °F 37.0 °F 30% 29.90 in 10.0 mi West 25.3 mph 32.2 mph N/A   Clear
7:56 PM 66.9 °F 37.9 °F 34% 29.91 in 10.0 mi WSW 21.9 mph 29.9 mph N/A   Clear
8:56 PM 64.9 °F 37.9 °F 37% 29.91 in 10.0 mi WSW 21.9 mph 27.6 mph N/A   Clear
9:56 PM 64.0 °F 36.0 °F 35% 29.92 in 10.0 mi West 19.6 mph - N/A   Clear
10:56 PM 64.0 °F 37.0 °F 37% 29.93 in 10.0 mi West 20.7 mph 28.8 mph N/A   Clear
11:56 PM 63.0 °F 37.9 °F 40% 29.92 in 10.0 mi West 19.6 mph - N/A   Clear